timestamp,wind_dir_avg,wind_spd_max_dir,wind_spd_avg,wind_spd_gust,battery_voltage,lat,long
2017-12-18 00:00:00+00:00,315.0,311.0,7.58,9.04,,47.59359,-54.27349
2017-12-18 00:10:00+00:00,314.0,310.0,8.65,9.86,,47.59359,-54.27349
2017-12-18 00:20:00+00:00,300.0,293.0,7.0,8.24,,47.59359,-54.27349
2017-12-18 00:30:00+00:00,307.0,309.0,6.46,7.75,,47.59359,-54.27349
2017-12-18 00:40:00+00:00,299.0,303.0,7.28,9.19,,47.59359,-54.27349
2017-12-18 00:50:00+00:00,301.0,301.0,7.85,9.33,,47.59359,-54.27349
2017-12-18 01:00:00+00:00,300.0,288.0,9.28,11.31,,47.59359,-54.27349
2017-12-18 01:10:00+00:00,299.0,309.0,7.4,8.98,,47.59359,-54.27349
2017-12-18 01:20:00+00:00,280.0,279.0,7.4,9.26,,47.59359,-54.27349
2017-12-18 01:30:00+00:00,308.0,309.0,5.96,6.82,,47.59359,-54.27349
2017-12-18 01:40:00+00:00,305.0,312.0,1.81,2.6,,47.59359,-54.27349
2017-12-18 01:50:00+00:00,288.0,282.0,1.74,3.01,,47.59359,-54.27349
2017-12-18 02:00:00+00:00,321.0,327.0,6.88,8.52,,47.59359,-54.27349
2017-12-18 02:10:00+00:00,291.0,312.0,6.42,8.21,,47.59359,-54.27349
2017-12-18 02:20:00+00:00,303.0,301.0,9.41,11.78,,47.59359,-54.27349
2017-12-18 02:30:00+00:00,298.0,294.0,8.49,9.98,,47.59359,-54.27349
2017-12-18 02:40:00+00:00,313.0,319.0,7.12,8.42,,47.59359,-54.27349
2017-12-18 02:50:00+00:00,311.0,309.0,12.2,14.5,,47.59359,-54.27349
2017-12-18 03:00:00+00:00,311.0,316.0,12.31,13.86,,47.59359,-54.27349
2017-12-18 03:10:00+00:00,316.0,317.0,11.35,12.61,,47.59359,-54.27349
2017-12-18 03:20:00+00:00,307.0,308.0,11.83,13.85,,47.59359,-54.27349
2017-12-18 03:30:00+00:00,313.0,313.0,11.72,13.46,,47.59359,-54.27349
2017-12-18 03:40:00+00:00,317.0,319.0,9.41,10.88,,47.59359,-54.27349
2017-12-18 03:50:00+00:00,305.0,300.0,7.6,9.25,,47.59359,-54.27349
2017-12-18 04:00:00+00:00,302.0,307.0,7.48,8.83,,47.59359,-54.27349
2017-12-18 04:10:00+00:00,301.0,302.0,7.82,9.48,,47.59359,-54.27349
2017-12-18 04:20:00+00:00,311.0,314.0,8.12,9.66,,47.59359,-54.27349
2017-12-18 04:30:00+00:00,292.0,297.0,6.77,8.92,,47.59359,-54.27349
2017-12-18 04:40:00+00:00,298.0,295.0,7.43,8.8,,47.59359,-54.27349
2017-12-18 04:50:00+00:00,304.0,299.0,7.52,9.08,,47.59359,-54.27349
2017-12-18 05:00:00+00:00,303.0,305.0,9.08,10.64,,47.59359,-54.27349
2017-12-18 05:10:00+00:00,297.0,295.0,7.46,8.43,,47.59359,-54.27349
2017-12-18 05:20:00+00:00,307.0,303.0,7.61,8.61,,47.59359,-54.27349
2017-12-18 05:30:00+00:00,307.0,305.0,6.73,8.01,,47.59359,-54.27349
2017-12-18 05:40:00+00:00,308.0,319.0,7.37,8.49,,47.59359,-54.27349
2017-12-18 05:50:00+00:00,316.0,314.0,8.01,10.08,,47.59359,-54.27349
2017-12-18 06:00:00+00:00,320.0,311.0,9.46,11.17,,47.59359,-54.27349
2017-12-18 06:10:00+00:00,327.0,326.0,7.45,8.45,,47.59359,-54.27349
2017-12-18 06:20:00+00:00,306.0,301.0,6.05,7.83,,47.59359,-54.27349
2017-12-18 06:30:00+00:00,306.0,304.0,7.16,8.56,,47.59359,-54.27349
2017-12-18 06:40:00+00:00,305.0,303.0,7.77,10.04,,47.59359,-54.27349
2017-12-18 06:50:00+00:00,309.0,314.0,7.27,9.71,,47.59359,-54.27349
2017-12-18 07:00:00+00:00,312.0,309.0,8.89,12.01,,47.59359,-54.27349
2017-12-18 07:10:00+00:00,314.0,317.0,9.63,10.66,,47.59359,-54.27349
2017-12-18 07:20:00+00:00,305.0,300.0,7.73,9.61,,47.59359,-54.27349
2017-12-18 07:30:00+00:00,297.0,295.0,7.85,8.63,,47.59359,-54.27349
2017-12-18 07:40:00+00:00,290.0,289.0,7.73,9.46,,47.59359,-54.27349
2017-12-18 07:50:00+00:00,271.0,273.0,3.43,4.94,,47.59359,-54.27349
2017-12-18 08:00:00+00:00,297.0,308.0,4.95,5.95,,47.59359,-54.27349
2017-12-18 08:10:00+00:00,301.0,305.0,6.58,8.6,,47.59359,-54.27349
2017-12-18 08:20:00+00:00,311.0,317.0,5.86,7.86,,47.59359,-54.27349
2017-12-18 08:30:00+00:00,322.0,318.0,6.71,8.51,,47.59359,-54.27349
2017-12-18 08:40:00+00:00,325.0,346.0,5.24,7.23,,47.59359,-54.27349
2017-12-18 08:50:00+00:00,312.0,301.0,6.79,8.36,,47.59359,-54.27349
2017-12-18 09:00:00+00:00,316.0,322.0,5.09,7.14,,47.59359,-54.27349
2017-12-18 09:10:00+00:00,303.0,302.0,5.25,6.51,,47.59359,-54.27349
2017-12-18 09:20:00+00:00,322.0,321.0,6.37,7.87,,47.59359,-54.27349
2017-12-18 09:30:00+00:00,314.0,308.0,5.55,6.8,,47.59359,-54.27349
2017-12-18 09:40:00+00:00,317.0,331.0,6.55,8.08,,47.59359,-54.27349
2017-12-18 09:50:00+00:00,309.0,303.0,5.97,7.46,,47.59359,-54.27349
2017-12-18 10:00:00+00:00,319.0,327.0,6.27,9.31,,47.59359,-54.27349
2017-12-18 10:10:00+00:00,329.0,318.0,6.4,8.48,,47.59359,-54.27349
2017-12-18 10:20:00+00:00,324.0,332.0,5.25,7.05,,47.59359,-54.27349
2017-12-18 10:30:00+00:00,320.0,323.0,7.14,9.92,,47.59359,-54.27349
2017-12-18 10:40:00+00:00,323.0,320.0,6.15,7.28,,47.59359,-54.27349
2017-12-18 10:50:00+00:00,315.0,315.0,8.75,10.75,,47.59359,-54.27349
2017-12-18 11:00:00+00:00,310.0,308.0,9.49,10.65,,47.59359,-54.27349
2017-12-18 11:10:00+00:00,314.0,313.0,9.6,11.01,,47.59359,-54.27349
2017-12-18 11:20:00+00:00,313.0,312.0,9.1,11.33,,47.59359,-54.27349
2017-12-18 11:30:00+00:00,314.0,317.0,6.73,8.78,,47.59359,-54.27349
2017-12-18 11:40:00+00:00,330.0,324.0,8.76,10.21,,47.59359,-54.27349
2017-12-18 11:50:00+00:00,320.0,317.0,9.21,10.88,,47.59359,-54.27349
2017-12-18 12:00:00+00:00,304.0,304.0,9.31,10.43,,47.59359,-54.27349
2017-12-18 12:10:00+00:00,301.0,294.0,9.87,12.32,,47.59359,-54.27349
2017-12-18 12:20:00+00:00,317.0,318.0,6.4,7.69,,47.59359,-54.27349
2017-12-18 12:30:00+00:00,309.0,303.0,6.44,7.77,,47.59359,-54.27349
2017-12-18 12:40:00+00:00,308.0,309.0,7.34,8.79,,47.59359,-54.27349
2017-12-18 12:50:00+00:00,318.0,324.0,6.69,8.05,,47.59359,-54.27349
2017-12-18 13:00:00+00:00,332.0,327.0,9.17,11.05,,47.59359,-54.27349
2017-12-18 13:10:00+00:00,328.0,326.0,9.08,11.07,,47.59359,-54.27349
2017-12-18 13:20:00+00:00,336.0,330.0,7.48,9.2,,47.59359,-54.27349
2017-12-18 13:30:00+00:00,321.0,322.0,7.39,9.06,,47.59359,-54.27349
2017-12-18 13:40:00+00:00,331.0,337.0,7.81,9.82,,47.59359,-54.27349
2017-12-18 13:50:00+00:00,337.0,323.0,7.41,8.73,,47.59359,-54.27349
2017-12-18 14:00:00+00:00,322.0,324.0,6.96,8.59,,47.59359,-54.27349
2017-12-18 14:10:00+00:00,325.0,330.0,5.66,7.58,,47.59359,-54.27349
2017-12-18 14:20:00+00:00,329.0,320.0,3.82,4.97,,47.59359,-54.27349
2017-12-18 14:30:00+00:00,327.0,324.0,5.39,6.9,,47.59359,-54.27349
2017-12-18 14:40:00+00:00,317.0,306.0,4.97,6.27,,47.59359,-54.27349
2017-12-18 14:50:00+00:00,336.0,334.0,5.38,6.53,,47.59359,-54.27349
2017-12-18 15:00:00+00:00,340.0,343.0,5.08,5.87,,47.59359,-54.27349
2017-12-18 15:10:00+00:00,347.0,354.0,5.9,7.88,,47.59359,-54.27349
2017-12-18 15:20:00+00:00,330.0,333.0,5.27,6.86,,47.59359,-54.27349
2017-12-18 15:30:00+00:00,312.0,306.0,5.77,6.85,,47.59359,-54.27349
2017-12-18 15:40:00+00:00,314.0,314.0,5.31,7.15,,47.59359,-54.27349
2017-12-18 15:50:00+00:00,335.0,329.0,5.82,6.88,,47.59359,-54.27349
2017-12-18 16:00:00+00:00,310.0,313.0,5.95,8.06,,47.59359,-54.27349
2017-12-18 16:10:00+00:00,316.0,319.0,7.82,8.84,,47.59359,-54.27349
2017-12-18 16:20:00+00:00,309.0,315.0,5.75,7.66,,47.59359,-54.27349
2017-12-18 16:30:00+00:00,297.0,296.0,6.41,8.73,,47.59359,-54.27349
2017-12-18 16:40:00+00:00,287.0,285.0,8.45,9.84,,47.59359,-54.27349
2017-12-18 16:50:00+00:00,287.0,284.0,8.27,9.57,,47.59359,-54.27349
2017-12-18 17:00:00+00:00,298.0,300.0,8.18,9.76,,47.59359,-54.27349
2017-12-18 17:10:00+00:00,301.0,297.0,7.0,8.94,,47.59359,-54.27349
2017-12-18 17:20:00+00:00,294.0,297.0,8.46,9.66,,47.59359,-54.27349
2017-12-18 17:30:00+00:00,311.0,310.0,9.15,10.53,,47.59359,-54.27349
2017-12-18 17:40:00+00:00,313.0,322.0,6.81,7.73,,47.59359,-54.27349
2017-12-18 17:50:00+00:00,307.0,314.0,7.66,9.14,,47.59359,-54.27349
2017-12-18 18:00:00+00:00,314.0,321.0,7.14,8.41,,47.59359,-54.27349
2017-12-18 18:10:00+00:00,326.0,334.0,7.12,9.11,,47.59359,-54.27349
2017-12-18 18:20:00+00:00,326.0,313.0,6.63,8.33,,47.59359,-54.27349
2017-12-18 18:30:00+00:00,319.0,330.0,5.8,6.95,,47.59359,-54.27349
2017-12-18 18:40:00+00:00,306.0,304.0,5.17,7.38,,47.59359,-54.27349
2017-12-18 18:50:00+00:00,309.0,301.0,4.76,5.78,,47.59359,-54.27349
2017-12-18 19:00:00+00:00,334.0,327.0,5.19,6.26,,47.59359,-54.27349
2017-12-18 19:10:00+00:00,317.0,319.0,7.5,8.81,,47.59359,-54.27349
2017-12-18 19:20:00+00:00,314.0,310.0,7.62,10.43,,47.59359,-54.27349
2017-12-18 19:30:00+00:00,302.0,295.0,6.63,8.78,,47.59359,-54.27349
2017-12-18 19:40:00+00:00,315.0,315.0,7.5,8.74,,47.59359,-54.27349
2017-12-18 19:50:00+00:00,321.0,325.0,6.89,8.3,,47.59359,-54.27349
2017-12-18 20:00:00+00:00,311.0,315.0,6.34,7.49,,47.59359,-54.27349
2017-12-18 20:10:00+00:00,318.0,322.0,5.72,6.69,,47.59359,-54.27349
2017-12-18 20:20:00+00:00,304.0,306.0,4.76,6.04,,47.59359,-54.27349
2017-12-18 20:30:00+00:00,310.0,312.0,7.51,9.3,,47.59359,-54.27349
2017-12-18 20:40:00+00:00,299.0,301.0,5.36,6.83,,47.59359,-54.27349
2017-12-18 20:50:00+00:00,302.0,303.0,6.53,8.07,,47.59359,-54.27349
2017-12-18 21:00:00+00:00,309.0,304.0,8.7,9.89,,47.59359,-54.27349
2017-12-18 21:10:00+00:00,297.0,297.0,8.94,10.29,,47.59359,-54.27349
2017-12-18 21:20:00+00:00,303.0,296.0,8.22,9.59,,47.59359,-54.27349
2017-12-18 21:30:00+00:00,304.0,308.0,8.43,9.91,,47.59359,-54.27349
2017-12-18 21:40:00+00:00,315.0,317.0,7.33,8.94,,47.59359,-54.27349
2017-12-18 21:50:00+00:00,298.0,289.0,7.87,9.62,,47.59359,-54.27349
2017-12-18 22:00:00+00:00,304.0,307.0,7.23,9.24,,47.59359,-54.27349
2017-12-18 22:10:00+00:00,302.0,303.0,7.01,9.51,,47.59359,-54.27349
2017-12-18 22:20:00+00:00,303.0,301.0,6.7,9.86,,47.59359,-54.27349
2017-12-18 22:30:00+00:00,303.0,318.0,5.83,7.11,,47.59359,-54.27349
2017-12-18 22:40:00+00:00,295.0,295.0,6.79,9.29,,47.59359,-54.27349
2017-12-18 22:50:00+00:00,307.0,303.0,7.58,9.18,,47.59359,-54.27349
2017-12-18 23:00:00+00:00,309.0,309.0,7.45,8.85,,47.59359,-54.27349
2017-12-18 23:10:00+00:00,308.0,297.0,5.63,7.15,,47.59359,-54.27349
2017-12-18 23:20:00+00:00,306.0,301.0,4.02,5.46,,47.59359,-54.27349
2017-12-18 23:30:00+00:00,286.0,297.0,4.66,6.37,,47.59359,-54.27349
2017-12-18 23:40:00+00:00,308.0,306.0,4.2,5.24,,47.59359,-54.27349
2017-12-18 23:50:00+00:00,291.0,288.0,5.22,6.6,,47.59359,-54.27349
